| time (UTC) | temp C | wind direction | speed KPH | gust KPH | rain 1hr cm | rain 24hr cm | rain mn cm | humidity % | barometer mb |
| 20260507042714 | 8 | 322 | 1.6 | 1.6 | 0.00 | 0.00 | 0.00 | 87 | 1010.8 |
| 20260507041212 | 8 | 340 | 0.0 | 1.6 | 0.00 | 0.00 | 0.00 | 88 | 1010.8 |
| 20260507035711 | 8 | 59 | 1.6 | 3.2 | 0.00 | 0.00 | 0.00 | 88 | 1010.8 |
| 20260507034210 | 8 | 56 | 1.6 | 3.2 | 0.00 | 0.00 | 0.00 | 88 | 1010.8 |
| 20260507032710 | 8 | 343 | 1.6 | 1.6 | 0.00 | 0.00 | 0.00 | 88 | 1010.5 |
| 20260507031209 | 8 | 84 | 1.6 | 4.8 | 0.00 | 0.00 | 0.00 | 88 | 1010.5 |
| 20260507025708 | 8 | 17 | 0.0 | 0.0 | 0.00 | 0.00 | 0.00 | 88 | 1010.1 |
| 20260507024207 | 8 | 8 | 0.0 | 1.6 | 0.00 | 0.00 | 0.00 | 88 | 1010.1 |
| 20260507022706 | 8 | 62 | 1.6 | 1.6 | 0.00 | 0.00 | 0.00 | 89 | 1010.5 |
| 20260507021206 | 8 | 55 | 1.6 | 1.6 | 0.00 | 0.00 | 0.00 | 90 | 1010.1 |
| 20260507015704 | 8 | 54 | 1.6 | 1.6 | 0.00 | 0.00 | 0.00 | 90 | 1010.1 |
| 20260507014204 | 8 | 327 | 4.8 | 9.7 | 0.00 | 0.00 | 0.00 | 90 | 1009.8 |
| 20260507012703 | 8 | 56 | 0.0 | 1.6 | 0.00 | 0.00 | 0.00 | 90 | 1009.8 |
| 20260507011202 | 8 | 334 | 4.8 | 6.4 | 0.00 | 0.00 | 0.00 | 90 | 1009.8 |
| 20260507005700 | 8 | 334 | 0.0 | 3.2 | 0.00 | 0.00 | 0.00 | 90 | 1009.8 |
| 20260507004159 | 8 | 16 | 1.6 | 1.6 | 0.00 | 0.00 | 0.00 | 90 | 1009.8 |
| 20260507002658 | 8 | 352 | 1.6 | 1.6 | 0.00 | 0.00 | 0.00 | 90 | 1009.5 |
| 20260507001157 | 8 | 73 | 0.0 | 0.0 | 0.00 | 0.00 | 0.00 | 91 | 1009.5 |
| 20260506235656 | 8 | 9 | 1.6 | 1.6 | 0.00 | 0.00 | 0.00 | 91 | 1009.5 |
| 20260506234155 | 8 | 45 | 0.0 | 0.0 | 0.00 | 0.00 | 0.00 | 91 | 1009.1 |
| 20260506232654 | 8 | 333 | 3.2 | 4.8 | 0.00 | 0.00 | 0.00 | 91 | 1009.5 |
| 20260506231154 | 8 | 6 | 1.6 | 1.6 | 0.00 | 0.00 | 0.00 | 92 | 1009.5 |
| 20260506225652 | 8 | 2 | 3.2 | 3.2 | 0.00 | 0.00 | 0.00 | 92 | 1009.1 |
| 20260506224151 | 8 | 45 | 0.0 | 0.0 | 0.00 | 0.00 | 0.00 | 92 | 1009.1 |
| 20260506222650 | 9 | 356 | 1.6 | 4.8 | 0.00 | 0.00 | 0.00 | 92 | 1009.1 |
| 20260506221149 | 9 | 342 | 0.0 | 0.0 | 0.00 | 0.00 | 0.00 | 92 | 1009.1 |
| 20260506215648 | 9 | 10 | 1.6 | 1.6 | 0.00 | 0.00 | 0.97 | 92 | 1008.8 |
| 20260506214147 | 9 | 11 | 0.0 | 0.0 | 0.18 | 0.00 | 0.97 | 92 | 1008.8 |
| 20260506212647 | 9 | 4 | 0.0 | 0.0 | 0.00 | 0.00 | 0.94 | 92 | 1008.8 |
| 20260506211146 | 9 | 349 | 0.0 | 0.0 | 0.00 | 0.00 | 0.94 | 92 | 1008.4 |
| 20260506205644 | 9 | 32 | 0.0 | 1.6 | 0.13 | 0.00 | 0.94 | 91 | 1008.1 |
| 20260506204144 | 9 | 24 | 1.6 | 3.2 | 0.18 | 0.00 | 0.91 | 91 | 1008.4 |
| 20260506202642 | 9 | 337 | 0.0 | 1.6 | 0.00 | 0.00 | 0.89 | 91 | 1008.4 |
| 20260506201141 | 9 | 349 | 0.0 | 0.0 | 0.00 | 0.00 | 0.89 | 91 | 1008.1 |
| 20260506195640 | 9 | 55 | 0.0 | 1.6 | 0.00 | 0.00 | 0.89 | 91 | 1008.1 |
| 20260506194139 | 9 | 343 | 4.8 | 6.4 | 0.00 | 0.00 | 0.89 | 91 | 1008.1 |
| 20260506192638 | 9 | 325 | 3.2 | 4.8 | 0.00 | 0.00 | 0.89 | 92 | 1007.8 |
| 20260506191137 | 9 | 7 | 1.6 | 3.2 | 0.00 | 0.00 | 0.89 | 92 | 1007.8 |
| 20260506185637 | 9 | 337 | 1.6 | 1.6 | 0.00 | 0.00 | 0.89 | 92 | 1007.4 |
| 20260506184136 | 9 | 343 | 3.2 | 4.8 | 0.00 | 0.00 | 0.89 | 92 | 1007.4 |
| 20260506182634 | 9 | 0 | 0.0 | 0.0 | 0.13 | 0.00 | 0.89 | 92 | 1007.1 |
| 20260506181134 | 9 | 318 | 0.0 | 0.0 | 0.00 | 0.00 | 0.86 | 92 | 1006.7 |
| 20260506175633 | 9 | 19 | 1.6 | 1.6 | 0.00 | 0.00 | 0.86 | 92 | 1007.1 |
| 20260506174132 | 9 | 95 | 0.0 | 1.6 | 0.18 | 0.00 | 0.86 | 91 | 1007.1 |
| 20260506172631 | 9 | 58 | 0.0 | 0.0 | 0.00 | 0.00 | 0.84 | 91 | 1006.7 |
| 20260506171129 | 9 | 32 | 3.2 | 4.8 | 0.00 | 0.00 | 0.84 | 90 | 1006.7 |
| 20260506165628 | 10 | 81 | 0.0 | 0.0 | 0.00 | 0.00 | 0.84 | 90 | 1006.4 |
| 20260506164127 | 10 | 94 | 0.0 | 0.0 | 0.00 | 0.00 | 0.84 | 90 | 1006.4 |
| 20260506162627 | 10 | 288 | 1.6 | 3.2 | 0.00 | 0.00 | 0.84 | 89 | 1006.4 |
| 20260506161126 | 10 | 81 | 1.6 | 1.6 | 0.00 | 0.00 | 0.84 | 89 | 1006.4 |
| 20260506155625 | 10 | 63 | 3.2 | 4.8 | 0.00 | 0.00 | 0.84 | 89 | 1006.4 |
| 20260506154124 | 10 | 346 | 0.0 | 0.0 | 0.00 | 0.00 | 0.84 | 90 | 1006.4 |
| 20260506152623 | 10 | 52 | 1.6 | 3.2 | 0.00 | 0.00 | 0.84 | 90 | 1006.1 |
| 20260506151122 | 10 | 329 | 1.6 | 4.8 | 0.00 | 0.00 | 0.84 | 91 | 1006.1 |
| 20260506145621 | 10 | 299 | 1.6 | 1.6 | 0.00 | 0.00 | 0.81 | 91 | 1005.7 |
| 20260506144120 | 10 | 50 | 0.0 | 1.6 | 0.18 | 0.00 | 0.81 | 91 | 1006.1 |
| 20260506142619 | 10 | 59 | 1.6 | 1.6 | 0.13 | 0.00 | 0.79 | 91 | 1005.7 |
| 20260506141118 | 10 | 294 | 4.8 | 4.8 | 0.00 | 0.00 | 0.76 | 91 | 1006.1 |
| 20260506135617 | 10 | 7 | 0.0 | 1.6 | 0.00 | 0.00 | 0.76 | 90 | 1005.4 |
| 20260506134116 | 10 | 317 | 4.8 | 6.4 | 0.00 | 0.00 | 0.71 | 90 | 1005.7 |
| 20260506132615 | 11 | 92 | 0.0 | 1.6 | 0.00 | 0.00 | 0.71 | 91 | 1005.4 |
| 20260506131114 | 11 | 319 | 1.6 | 1.6 | 0.00 | 0.00 | 0.71 | 90 | 1005.4 |
| 20260506125613 | 11 | 3 | 0.0 | 0.0 | 0.00 | 0.00 | 0.71 | 91 | 1005.4 |
| 20260506124111 | 11 | 73 | 0.0 | 0.0 | 0.00 | 0.00 | 0.71 | 91 | 1005.4 |
| 20260506122611 | 11 | 303 | 1.6 | 3.2 | 0.00 | 0.00 | 0.71 | 91 | 1005.4 |
| 20260506121110 | 11 | 26 | 0.0 | 0.0 | 0.00 | 0.00 | 0.71 | 91 | 1005.1 |
| 20260506115609 | 11 | 45 | 0.0 | 0.0 | 0.00 | 0.00 | 0.71 | 91 | 1005.1 |
| 20260506114108 | 11 | 75 | 3.2 | 3.2 | 0.00 | 0.00 | 0.71 | 91 | 1005.1 |
| 20260506112607 | 11 | 299 | 1.6 | 3.2 | 0.00 | 0.00 | 0.71 | 91 | 1004.7 |
| 20260506111107 | 11 | 8 | 1.6 | 3.2 | 0.18 | 0.00 | 0.71 | 91 | 1004.7 |
| 20260506105606 | 11 | 51 | 0.0 | 0.0 | 0.00 | 0.00 | 0.69 | 91 | 1004.7 |
| 20260506104105 | 11 | 340 | 1.6 | 1.6 | 0.00 | 0.00 | 0.69 | 91 | 1004.7 |
| 20260506102604 | 11 | 59 | 1.6 | 1.6 | 0.00 | 0.00 | 0.69 | 91 | 1004.7 |
| 20260506101103 | 11 | 300 | 1.6 | 3.2 | 0.00 | 0.00 | 0.66 | 91 | 1004.4 |
| 20260506095602 | 11 | 1 | 0.0 | 0.0 | 0.00 | 0.00 | 0.64 | 91 | 1004.4 |
| 20260506094101 | 11 | 26 | 0.0 | 0.0 | 0.00 | 0.00 | 0.61 | 91 | 1004.4 |
| 20260506092600 | 11 | 76 | 0.0 | 0.0 | 0.00 | 0.00 | 0.61 | 91 | 1004.0 |
| 20260506091059 | 11 | 350 | 0.0 | 0.0 | 0.00 | 0.00 | 0.61 | 91 | 1004.0 |
| 20260506085558 | 11 | 50 | 0.0 | 1.6 | 0.13 | 0.00 | 0.61 | 91 | 1004.4 |
| 20260506084057 | 11 | 98 | 0.0 | 0.0 | 0.00 | 0.00 | 0.58 | 91 | 1004.0 |
| 20260506082557 | 11 | 33 | 0.0 | 0.0 | 0.00 | 0.00 | 0.58 | 91 | 1004.0 |
| 20260506081056 | 11 | 352 | 0.0 | 1.6 | 0.00 | 0.00 | 0.56 | 91 | 1004.0 |
| 20260506072553 | 11 | 7 | 0.0 | 0.0 | 0.00 | 0.00 | 0.51 | 92 | 1003.4 |
| 20260506071052 | 11 | 3 | 1.6 | 1.6 | 0.00 | 0.00 | 0.51 | 92 | 1003.7 |
| 20260506061049 | 11 | 47 | 0.0 | 0.0 | 0.00 | 0.00 | 0.41 | 92 | 1003.4 |
| 20260506051046 | 10 | 35 | 0.0 | 0.0 | 0.00 | 0.00 | 0.33 | 92 | 1003.4 |
| 20260506044044 | 10 | 28 | 0.0 | 0.0 | 0.00 | 0.00 | 0.33 | 92 | 1003.4 |